Date String (YYYY-MM-DD hh:mm:ss) UTC,Instrument flags,Ambient pressure (hPa),Sample flow (lpm),Bypass flow (lpm),Sample temperature (°C),Ambient temperature (°C),ASC tube jacket temperature (°C),LED temperature (°C),Box temperature (°C),Sample RH (%),Span deviation,Mass concentration (μg/m³),Mass concentration (μg/m³),Mass concentration (μg/m³)
DateTimeUTC,F1_M11,P_M11,Q1_M11,Q2_M11,T1_M11,T2_M11,T3_M11,T4_M11,T5_M11,U1_M11,ZSPAN_M11,X2_M11,X0_M11,X1_M11
2023-01-16 17:00:00,,0812.3,5.01,0.00,22.5,21.3,00.0,31.3,24.3,14.5,0000.0,0003.82,0006.61,0003.42
2023-01-16 17:01:00,,0812.3,4.99,0.00,22.5,21.3,00.0,31.3,24.4,14.9,0000.0,0003.97,0006.77,0003.60
2023-01-16 17:02:00,,0812.3,4.99,0.00,22.5,21.3,00.0,31.3,24.3,15.0,0000.0,0004.12,0007.37,0003.79
2023-01-16 17:03:00,,0812.3,4.98,0.00,22.5,21.3,00.0,31.3,24.3,14.1,0000.0,0004.35,0007.88,0004.01
2023-01-16 17:04:00,,0812.2,4.99,0.00,22.5,21.3,00.0,31.3,24.3,13.7,0000.0,0004.59,0009.07,0004.22
2023-01-16 17:05:00,,0812.3,5.00,0.00,22.5,21.3,00.0,31.3,24.4,13.5,0000.0,0004.77,0009.72,0004.40
2023-01-16 17:06:00,,0812.3,5.02,0.00,22.5,21.3,00.0,31.4,24.3,14.2,0000.0,0005.02,0010.02,0004.65
2023-01-16 17:07:00,,0812.3,4.99,0.00,22.5,21.3,00.0,31.4,24.4,14.4,0000.0,0005.26,0010.41,0004.89
2023-01-16 17:08:00,,0812.4,5.01,0.00,22.6,21.3,00.0,31.4,24.4,14.4,0000.0,0005.49,0011.43,0005.14
2023-01-16 17:09:00,,0812.4,5.00,0.00,22.6,21.3,00.0,31.4,24.4,15.0,0000.0,0005.80,0012.04,0005.44
2023-01-16 17:10:00,,0812.4,5.01,0.00,22.6,21.3,00.0,31.4,24.4,15.2,0000.0,0006.03,0012.24,0005.70
2023-01-16 17:11:00,,0812.4,4.98,0.00,22.6,21.3,00.0,31.4,24.4,14.9,0000.0,0006.11,0012.32,0005.80
2023-01-16 17:12:00,,0812.4,4.99,0.00,22.6,21.3,00.0,31.4,24.4,14.5,0000.0,0006.09,0012.33,0005.76
2023-01-16 17:13:00,,0812.4,4.99,0.00,22.6,21.3,00.0,31.4,24.4,14.3,0000.0,0006.06,0012.23,0005.72
2023-01-16 17:14:00,,0812.4,5.00,0.00,22.6,21.3,00.0,31.4,24.4,14.6,0000.0,0006.05,0011.92,0005.74
2023-01-16 17:15:00,,0812.4,5.00,0.00,22.6,21.3,00.0,31.4,24.4,14.7,0000.0,0006.08,0011.13,0005.80
2023-01-16 17:16:00,,0812.4,4.99,0.00,22.6,21.3,00.0,31.4,24.4,15.1,0000.0,0006.16,0010.53,0005.90
2023-01-16 17:17:00,,0812.4,4.99,0.00,22.6,21.3,00.0,31.4,24.4,15.2,0000.0,0006.22,0010.59,0005.97
2023-01-16 17:18:00,,0812.4,4.99,0.00,22.6,21.3,00.0,31.4,24.4,15.7,0000.0,0006.27,0010.51,0006.03
2023-01-16 17:19:00,,0812.4,4.99,0.00,22.6,21.3,00.0,31.4,24.4,15.8,0000.0,0006.37,0009.96,0006.13
2023-01-16 17:20:00,,0812.3,4.99,0.00,22.6,21.3,00.0,31.4,24.4,15.9,0000.0,0006.48,0009.71,0006.21
2023-01-16 17:21:00,,0812.4,5.00,0.00,22.6,21.3,00.0,31.4,24.4,15.7,0000.0,0006.55,0009.81,0006.27
2023-01-16 17:22:00,,0812.4,5.00,0.00,22.6,21.3,00.0,31.4,24.5,15.8,0000.0,0006.61,0009.84,0006.34
2023-01-16 17:23:00,,0812.4,5.00,0.00,22.6,21.3,00.0,31.4,24.4,16.2,-001.5,0006.70,0010.23,0006.44
2023-01-16 17:24:00,,0812.4,5.01,0.00,22.6,21.3,00.0,31.4,24.4,16.0,-001.7,0006.80,0010.21,0006.54
2023-01-16 17:25:00,,0812.4,4.97,0.00,22.6,21.3,00.0,31.4,24.4,15.9,-001.4,0006.91,0010.32,0006.65
2023-01-16 17:26:00,,0812.4,5.00,0.00,22.6,21.3,00.0,31.4,24.4,15.8,-001.9,0006.99,0010.43,0006.73
2023-01-16 17:27:00,,0812.4,5.00,0.00,22.6,21.3,00.0,31.4,24.4,15.6,-000.2,0007.05,0010.50,0006.80
2023-01-16 17:28:00,,0812.4,5.00,0.00,22.6,21.5,00.0,31.4,24.5,15.9,-001.4,0007.16,0010.67,0006.89
2023-01-16 17:29:00,,0812.4,5.00,0.00,22.7,22.3,00.0,31.4,24.7,15.9,-001.6,0007.22,0010.74,0006.96
2023-01-16 17:30:00,,0812.4,4.99,0.00,22.8,23.0,00.0,31.4,24.9,15.4,-001.2,0007.22,0010.73,0006.98
2023-01-16 17:31:00,,0812.4,5.00,0.00,22.9,22.9,00.0,31.5,24.9,15.3,-000.1,0007.19,0010.67,0006.98
2023-01-16 17:32:00,,0812.4,5.00,0.00,22.9,22.6,00.0,31.5,24.9,14.7,0000.0,0007.14,0010.61,0006.94
2023-01-16 17:33:00,,0812.4,5.01,0.00,22.9,22.3,00.0,31.6,24.8,14.0,0000.0,0007.01,0010.61,0006.81
2023-01-16 17:34:00,,0812.4,5.00,0.00,22.9,22.1,00.0,31.6,24.8,14.0,0000.0,0006.87,0010.83,0006.65
2023-01-16 17:35:00,,0812.4,5.00,0.00,22.9,22.0,00.0,31.6,24.8,14.6,0000.0,0006.75,0010.58,0006.53
2023-01-16 17:36:00,,0812.4,4.99,0.00,22.9,22.0,00.0,31.6,24.8,15.5,0000.0,0006.70,0010.50,0006.48
2023-01-16 17:37:00,,0812.5,5.00,0.00,22.9,21.9,00.0,31.6,24.8,15.8,0000.0,0006.68,0010.47,0006.46
2023-01-16 17:38:00,,0812.5,5.00,0.00,22.9,21.9,00.0,31.7,24.8,15.8,0000.0,0006.64,0010.43,0006.43
2023-01-16 17:39:00,,0812.5,5.00,0.00,22.9,21.8,00.0,31.7,24.8,16.1,0000.0,0006.59,0010.32,0006.38
2023-01-16 17:40:00,,0812.4,5.01,0.00,22.9,21.8,00.0,31.7,24.8,15.5,0000.0,0006.51,0010.31,0006.28
2023-01-16 17:41:00,,0812.4,4.99,0.00,22.9,21.8,00.0,31.7,24.8,15.8,0000.0,0006.39,0010.23,0006.16
2023-01-16 17:42:00,,0812.4,5.01,0.00,22.9,21.7,00.0,31.7,24.7,16.2,0000.0,0006.42,0010.31,0006.17
2023-01-16 17:43:00,,0812.4,5.00,0.00,22.9,21.5,00.0,31.7,24.6,16.5,0000.0,0006.56,0010.51,0006.27
2023-01-16 17:44:00,,0812.3,5.00,0.00,22.9,21.4,00.0,31.7,24.6,16.4,0000.0,0006.76,0010.63,0006.45
2023-01-16 17:45:00,,0812.4,5.01,0.00,22.8,21.3,00.0,31.7,24.6,16.1,0000.0,0006.87,0009.99,0006.59
2023-01-16 17:46:00,,0812.4,5.00,0.00,22.8,21.3,00.0,31.7,24.6,16.1,0000.0,0006.97,0010.69,0006.69
2023-01-16 17:47:00,,0812.2,5.00,0.00,22.8,21.3,00.0,31.7,24.6,16.4,0000.0,0007.02,0011.35,0006.71
2023-01-16 17:48:00,,0812.3,4.99,0.00,22.8,21.4,00.0,31.7,24.6,15.2,0000.4,0006.94,0011.29,0006.62
2023-01-16 17:49:00,,0812.3,5.00,0.00,22.8,21.4,00.0,31.7,24.6,16.0,0000.0,0006.90,0011.24,0006.58
2023-01-16 17:50:00,,0812.4,5.00,0.00,22.8,21.4,00.0,31.7,24.6,16.5,0000.2,0006.87,0011.19,0006.56
2023-01-16 17:51:00,,0812.4,5.01,0.00,22.8,21.4,00.0,31.7,24.6,16.3,0001.4,0006.86,0011.10,0006.57
2023-01-16 17:52:00,,0812.4,5.01,0.00,22.8,21.5,00.0,31.7,24.6,16.3,0000.0,0006.89,0011.08,0006.60
2023-01-16 17:53:00,,0812.4,4.99,0.00,22.8,21.5,00.0,31.7,24.6,16.2,0001.9,0006.81,0010.94,0006.53
2023-01-16 17:54:00,,0812.4,5.00,0.00,22.8,21.5,00.0,31.7,24.6,16.4,0000.9,0006.70,0010.74,0006.44
2023-01-16 17:55:00,,0812.3,5.00,0.00,22.8,21.4,00.0,31.7,24.5,16.7,0000.3,0006.66,0010.69,0006.40
2023-01-16 17:56:00,,0812.1,4.99,0.00,22.8,21.3,00.0,31.7,24.5,16.9,0000.0,0006.72,0010.78,0006.44
2023-01-16 17:57:00,,0812.2,5.01,0.00,22.7,21.2,00.0,31.7,24.5,13.8,0000.0,0006.57,0010.18,0006.29
2023-01-16 17:58:00,,0812.3,4.99,0.00,22.7,21.2,00.0,31.7,24.4,15.7,0000.0,0006.42,0009.29,0006.16
2023-01-16 17:59:00,,0812.3,4.99,0.00,22.7,21.2,00.0,31.6,24.5,16.4,0000.0,0006.45,0009.32,0006.20
